When you browse on this site, cookies collect data to enhance your experience and personalize the content and advertising you see.
Visit our Privacy Policy to learn more. By continuing to use the site, you agree to this use of cookies and data.
  • In Portugal
  • List of Countries
  • For 7 days
  • Water Temperature
  • Weather Map
  • Weather Widgets
  • user-avatar
    Login

    Hourly Weather Kochergino

    Today, 24 August, Saturday

    Time Temperature Precipitation Wind Pressure Humidity
    00:00 +13°C° 0 mm 2 mps 747 mmHg 92%
    01:00 +12°C° 0 mm 2 mps 746 mmHg 94%
    02:00 +12°C° 0 mm 2 mps 746 mmHg 95%
    03:00 +12°C° 0 mm 2 mps 746 mmHg 94%
    04:00 +11°C° 0 mm 3 mps 746 mmHg 93%
    05:00 +11°C° 0 mm 3 mps 745 mmHg 92%
    06:00 +13°C° 0 mm 3 mps 745 mmHg 86%
    07:00 +15°C° 0 mm 4 mps 745 mmHg 80%
    08:00 +17°C° 0 mm 4 mps 745 mmHg 73%
    09:00 +18°C° 0 mm 4 mps 745 mmHg 69%
    10:00 +19°C° 0 mm 4 mps 745 mmHg 65%
    11:00 +20°C° 0 mm 5 mps 745 mmHg 61%
    12:00 +21°C° 0.1 mm 5 mps 745 mmHg 63%
    13:00 +21°C° 0.1 mm 5 mps 744 mmHg 64%
    14:00 +21°C° 0.1 mm 5 mps 744 mmHg 65%
    15:00 +20°C° 0.2 mm 4 mps 744 mmHg 71%
    16:00 +20°C° 0.2 mm 3 mps 744 mmHg 77%
    17:00 +19°C° 0.2 mm 3 mps 744 mmHg 82%
    18:00 +17°C° 0 mm 2 mps 744 mmHg 86%
    19:00 +16°C° 0 mm 2 mps 744 mmHg 90%
    20:00 +15°C° 0 mm 2 mps 745 mmHg 94%
    21:00 +14°C° 0 mm 2 mps 745 mmHg 94%
    22:00 +14°C° 0 mm 2 mps 745 mmHg 94%
    23:00 +13°C° 0 mm 2 mps 745 mmHg 93%

    Tomorrow, 25 August, Sunday

    Time Temperature Precipitation Wind Pressure Humidity
    00:00 +12°C° 0 mm 1 mps 746 mmHg 94%
    01:00 +12°C° 0 mm 1 mps 746 mmHg 95%
    02:00 +11°C° 0 mm 1 mps 746 mmHg 96%
    03:00 +10°C° 0 mm 1 mps 746 mmHg 97%
    04:00 +10°C° 0 mm 1 mps 747 mmHg 97%
    05:00 +10°C° 0 mm 1 mps 747 mmHg 97%
    06:00 +11°C° 0 mm 1 mps 747 mmHg 93%
    07:00 +13°C° 0 mm 2 mps 747 mmHg 89%
    08:00 +14°C° 0 mm 2 mps 748 mmHg 85%
    09:00 +16°C° 0 mm 2 mps 748 mmHg 75%
    10:00 +18°C° 0 mm 2 mps 748 mmHg 66%
    11:00 +19°C° 0 mm 2 mps 748 mmHg 57%
    12:00 +21°C° 0 mm 1 mps 748 mmHg 54%
    13:00 +22°C° 0 mm 1 mps 748 mmHg 51%
    14:00 +23°C° 0 mm 1 mps 748 mmHg 48%
    15:00 +22°C° 0 mm 1 mps 748 mmHg 53%
    16:00 +21°C° 0 mm 1 mps 748 mmHg 58%
    17:00 +21°C° 0 mm 1 mps 748 mmHg 62%
    18:00 +19°C° 0 mm 1 mps 748 mmHg 69%
    19:00 +16°C° 0 mm 1 mps 748 mmHg 76%
    20:00 +14°C° 0 mm 1 mps 748 mmHg 83%
    21:00 +13°C° 0 mm 1 mps 748 mmHg 85%
    22:00 +12°C° 0 mm 1 mps 748 mmHg 88%
    23:00 +11°C° 0 mm 0 mps 748 mmHg 90%

    Day after tomorrow, 26 August, Monday

    Time Temperature Precipitation Wind Pressure Humidity
    00:00 +11°C° 0 mm 0 mps 748 mmHg 91%
    01:00 +10°C° 0 mm 0 mps 748 mmHg 92%
    02:00 +10°C° 0 mm 0 mps 748 mmHg 92%
    03:00 +11°C° 0 mm 1 mps 748 mmHg 93%
    04:00 +11°C° 0 mm 1 mps 748 mmHg 94%
    05:00 +10°C° 0 mm 1 mps 748 mmHg 94%
    06:00 +12°C° 0 mm 1 mps 748 mmHg 87%
    07:00 +15°C° 0 mm 1 mps 748 mmHg 79%
    08:00 +18°C° 0 mm 1 mps 748 mmHg 72%
    09:00 +19°C° 0 mm 1 mps 748 mmHg 66%
    10:00 +19°C° 0 mm 2 mps 748 mmHg 61%
    11:00 +21°C° 0 mm 2 mps 747 mmHg 55%
    12:00 +21°C° 0 mm 2 mps 747 mmHg 54%
    13:00 +23°C° 0 mm 2 mps 747 mmHg 53%
    14:00 +22°C° 0 mm 3 mps 747 mmHg 52%
    15:00 +23°C° 0 mm 2 mps 746 mmHg 57%
    16:00 +21°C° 0 mm 2 mps 746 mmHg 62%
    17:00 +20°C° 0 mm 2 mps 745 mmHg 66%
    18:00 +19°C° 0 mm 2 mps 745 mmHg 72%
    19:00 +17°C° 0 mm 2 mps 745 mmHg 78%
    20:00 +15°C° 0 mm 2 mps 744 mmHg 83%
    21:00 +15°C° 0 mm 2 mps 744 mmHg 84%
    22:00 +15°C° 0 mm 2 mps 744 mmHg 86%
    23:00 +14°C° 0 mm 2 mps 744 mmHg 87%

    27 August, Tuesday

    Time Temperature Precipitation Wind Pressure Humidity
    00:00 +14°C° 0 mm 2 mps 744 mmHg 89%
    01:00 +14°C° 0 mm 2 mps 743 mmHg 92%
    02:00 +14°C° 0 mm 2 mps 743 mmHg 94%
    03:00 +14°C° 0 mm 2 mps 743 mmHg 95%
    04:00 +14°C° 0 mm 2 mps 743 mmHg 97%
    05:00 +13°C° 0 mm 2 mps 743 mmHg 98%
    06:00 +15°C° 0 mm 2 mps 743 mmHg 94%
    07:00 +16°C° 0 mm 2 mps 743 mmHg 89%
    08:00 +17°C° 0 mm 3 mps 743 mmHg 85%
    09:00 +18°C° 0 mm 3 mps 743 mmHg 77%
    10:00 +19°C° 0 mm 4 mps 743 mmHg 68%
    11:00 +20°C° 0 mm 4 mps 744 mmHg 60%
    12:00 +20°C° 0 mm 4 mps 744 mmHg 57%
    13:00 +20°C° 0 mm 4 mps 744 mmHg 54%
    14:00 +20°C° 0 mm 5 mps 744 mmHg 51%
    15:00 +20°C° 0 mm 4 mps 744 mmHg 55%
    16:00 +19°C° 0 mm 4 mps 744 mmHg 59%
    17:00 +18°C° 0 mm 3 mps 744 mmHg 63%
    18:00 +17°C° 0 mm 3 mps 744 mmHg 71%
    19:00 +14°C° 0 mm 3 mps 745 mmHg 78%
    20:00 +13°C° 0 mm 2 mps 745 mmHg 86%
    21:00 +12°C° 0 mm 2 mps 745 mmHg 87%
    22:00 +12°C° 0 mm 2 mps 746 mmHg 89%
    23:00 +10°C° 0 mm 2 mps 746 mmHg 90%

    28 August, Wednesday

    Time Temperature Precipitation Wind Pressure Humidity
    00:00 +9°C° 0 mm 2 mps 746 mmHg 90%
    01:00 +10°C° 0 mm 1 mps 746 mmHg 90%
    02:00 +9°C° 0 mm 1 mps 746 mmHg 90%
    03:00 +8°C° 0 mm 1 mps 747 mmHg 88%
    04:00 +8°C° 0 mm 1 mps 747 mmHg 85%
    05:00 +7°C° 0 mm 1 mps 747 mmHg 82%
    06:00 +9°C° 0 mm 1 mps 747 mmHg 74%
    07:00 +10°C° 0 mm 2 mps 748 mmHg 66%
    08:00 +13°C° 0 mm 2 mps 748 mmHg 58%
    09:00 +13°C° 0 mm 3 mps 748 mmHg 55%
    10:00 +14°C° 0 mm 3 mps 748 mmHg 52%
    11:00 +17°C° 0 mm 3 mps 748 mmHg 50%
    12:00 +17°C° 0 mm 3 mps 748 mmHg 49%
    13:00 +18°C° 0 mm 3 mps 748 mmHg 49%
    14:00 +19°C° 0 mm 3 mps 747 mmHg 48%
    15:00 +18°C° 0 mm 3 mps 747 mmHg 52%
    16:00 +18°C° 0 mm 3 mps 747 mmHg 56%
    17:00 +17°C° 0 mm 2 mps 747 mmHg 60%
    18:00 +15°C° 0 mm 2 mps 747 mmHg 68%
    19:00 +13°C° 0 mm 2 mps 747 mmHg 75%
    20:00 +12°C° 0 mm 1 mps 747 mmHg 82%
    21:00 +11°C° 0 mm 1 mps 747 mmHg 85%
    22:00 +10°C° 0 mm 1 mps 747 mmHg 87%
    23:00 +10°C° 0 mm 1 mps 747 mmHg 90%

    29 August, Thursday

    Time Temperature Precipitation Wind Pressure Humidity
    00:00 +9°C° 0 mm 1 mps 747 mmHg 91%
    01:00 +8°C° 0 mm 0 mps 747 mmHg 92%
    02:00 +8°C° 0 mm 0 mps 747 mmHg 92%
    03:00 +8°C° 0 mm 0 mps 747 mmHg 92%
    04:00 +7°C° 0 mm 0 mps 747 mmHg 92%
    05:00 +7°C° 0 mm 0 mps 748 mmHg 92%
    06:00 +9°C° 0 mm 0 mps 748 mmHg 85%
    07:00 +11°C° 0 mm 0 mps 748 mmHg 77%
    08:00 +14°C° 0 mm 1 mps 747 mmHg 70%
    09:00 +15°C° 0 mm 1 mps 747 mmHg 67%
    10:00 +18°C° 0 mm 1 mps 747 mmHg 64%
    11:00 +19°C° 0 mm 1 mps 747 mmHg 61%
    12:00 +19°C° 0 mm 1 mps 747 mmHg 60%
    13:00 +20°C° 0 mm 1 mps 747 mmHg 60%
    14:00 +21°C° 0 mm 1 mps 747 mmHg 59%
    15:00 +20°C° 0.1 mm 1 mps 747 mmHg 66%
    16:00 +19°C° 0.1 mm 1 mps 746 mmHg 73%
    17:00 +18°C° 0.1 mm 1 mps 746 mmHg 79%
    18:00 +16°C° 0.1 mm 1 mps 746 mmHg 83%
    19:00 +15°C° 0.1 mm 1 mps 746 mmHg 86%
    20:00 +15°C° 0.1 mm 1 mps 746 mmHg 90%
    21:00 +14°C° 0 mm 1 mps 746 mmHg 91%
    22:00 +14°C° 0 mm 1 mps 747 mmHg 92%
    23:00 +14°C° 0 mm 1 mps 747 mmHg 93%
    Show more